CZ-4B DEB

Satellite information

Favourite Embed

Satellite Type and Status

DEBRISIN ORBIT

Key statistics

Satellite CZ-4B DEB at a glance.

Uptime

8568

Days in orbit

Revolutions

≈ 13.7

Per day

Orbit

SSO

Sun Synchronous Orbit

Inclination

98.8

Latest

Satellite identification and parameters

Extended collection of information and parameters for CZ-4B DEB.

Object identification

Identified? True

Debris? True

Object name: CZ-4B DEB

International designator: 2002-024G

Object number (NORAD): 29216

Object ID (CCSDS): 29216

Country: PEOPLES REPUBLIC OF CHINA (PRC)

Current information (Y/N): Y

RCS size: SMALL

Orbital parameters

Period: 105.181 minutes

Inclination: 98.8136 deg

SMA: 7381.07 km

Apoapsis: 1169.465 km

Periapsis: 836.405 km

RAAN: 95.6956 deg

Eccentricy: 0.02256177

Argument of periapsis: 352.8751 deg

Mean anomaly: 6.9207 deg

Mean motion: 13.69064125 rev/day

Mean motion (dot): 0.00000372 rev/day2

B* drag term: 0.00039813501 1/REarth

Two-line elements (TLE)

Creation date: Oct. 28, 2025, 7:11 p.m.

Reference frame: TEME

Reference center: EARTH

Epoch: Oct. 28, 2025, 6:12 a.m. UTC

TLE line 0: 0 CZ-4B DEB

TLE line 1: 1 29216U 02024G 25301.25875792 .00000372 00000-0 39814-3 0 9994

TLE line 2: 2 29216 98.8136 95.6956 0225618 352.8751 6.9207 13.69064125667709

Live tracking on map

Real-time ground track for satellite CZ-4B DEB.

In-orbit conjunctions

A list of the most updated potential collisions computed for object CZ-4B DEB.

Target Orbit TCA Probability of collision Miss distance Type
DELTA 1 DEB SSO 2025-10-04 06:25:26 0.000254401 172.0 (m) DEBRIS
NADEZHDA 1 LEO 2025-08-17 10:28:49 0.0003955461 238.0 (m) PAYLOAD

Associated space launch

HaiYang abbreviated HY, is a series of marine remote sensing satellites developed and operated by China since 2002. As of June 2020, six satellites were launched and two more are planned. Feng Yun 1D was a polar orbiting meteorological satellite.

CZ-4B DEB was lifted into orbit during the mission ‘Long March 4B | Hai Yang 1 & Feng Yun 1D’, on board a Long March 4B space rocket.

The launch took place on May 15, 2002, 1:50 a.m. from Launch Complex 7.

For more information about the launch, click the button.

Launch to space Long March 4B | Hai Yang 1 & Feng Yun 1D
Long March 4B | Hai Yang 1 & Feng Yun 1D

Agency: N/A

Status: Launch Successful

Launch date: May 15, 2002, 1:50 a.m. UTC

Rocket: Long March 4B

Launch pad: Launch Complex 7

Location: Taiyuan Satellite Launch Center, People's Republic of China

...

Latest news about this satellite

There are no fresh news available about this satellite. Check back as we update our databases every day.


Newsletter sign-up

Weekly statistics, charts and insights to help you stay on top of the space industry.